TimeCDT,TemperatureF,Dew PointF,Humidity,Sea Level PressureIn,VisibilityMPH,Wind Direction,Wind SpeedMPH,Gust SpeedMPH,PrecipitationIn,Events,Conditions,WindDirDegrees,DateUTC
12:58 AM,64.9,64.4,98,30.04,10.0,NNW,4.6,-,N/A,,Clear,340,2013-05-11 05:58:00
1:17 AM,64.4,64.4,100,30.04,10.0,North,5.8,-,N/A,,Light Drizzle,10,2013-05-11 06:17:00
1:35 AM,64.4,64.4,100,30.02,10.0,NNE,6.9,-,N/A,,Clear,20,2013-05-11 06:35:00
1:58 AM,64.9,64.0,97,30.02,10.0,NNE,6.9,-,0.00,,Scattered Clouds,20,2013-05-11 06:58:00
2:58 AM,64.2,63.9,99,30.03,10.0,NNW,8.1,-,N/A,,Partly Cloudy,340,2013-05-11 07:58:00
3:58 AM,64.2,63.3,97,30.05,10.0,North,4.6,-,N/A,,Partly Cloudy,360,2013-05-11 08:58:00
4:40 AM,64.4,62.6,94,30.02,10.0,East,5.8,-,N/A,,Light Drizzle,80,2013-05-11 09:40:00
4:48 AM,64.4,62.6,94,30.05,10.0,NNW,6.9,-,N/A,,Clear,340,2013-05-11 09:48:00
4:58 AM,63.7,63.1,98,30.04,10.0,NNW,8.1,-,0.00,,Partly Cloudy,330,2013-05-11 09:58:00
5:58 AM,63.5,62.1,95,30.01,10.0,North,5.8,-,N/A,,Partly Cloudy,10,2013-05-11 10:58:00
6:58 AM,63.3,61.9,95,30.04,10.0,North,5.8,-,N/A,,Clear,10,2013-05-11 11:58:00
7:58 AM,65.8,62.1,88,30.06,10.0,North,6.9,-,N/A,,Clear,360,2013-05-11 12:58:00
8:58 AM,69.8,61.9,76,30.08,10.0,NNE,11.5,17.3,N/A,,Clear,30,2013-05-11 13:58:00
9:58 AM,72.1,61.7,70,30.09,10.0,NNE,10.4,18.4,N/A,,Partly Cloudy,20,2013-05-11 14:58:00
10:58 AM,75.4,61.7,62,30.08,10.0,NNE,13.8,21.9,N/A,,Clear,20,2013-05-11 15:58:00
11:58 AM,78.8,61.0,54,30.08,10.0,NNE,13.8,21.9,N/A,,Clear,30,2013-05-11 16:58:00
12:44 PM,78.8,59.0,51,30.09,10.0,North,12.7,20.7,N/A,,Scattered Clouds,360,2013-05-11 17:44:00
12:58 PM,79.2,59.9,52,30.08,10.0,ENE,13.8,17.3,N/A,,Partly Cloudy,60,2013-05-11 17:58:00
1:58 PM,80.6,59.5,49,30.07,10.0,NNE,12.7,17.3,N/A,,Partly Cloudy,30,2013-05-11 18:58:00
2:58 PM,79.7,58.5,48,30.06,10.0,NE,12.7,17.3,N/A,,Partly Cloudy,40,2013-05-11 19:58:00
3:02 PM,80.6,57.2,45,30.08,10.0,North,13.8,17.3,N/A,,Scattered Clouds,10,2013-05-11 20:02:00
3:58 PM,81.5,58.1,45,30.04,10.0,North,9.2,18.4,N/A,,Scattered Clouds,10,2013-05-11 20:58:00
4:58 PM,79.2,57.6,47,30.04,10.0,NNE,10.4,-,N/A,,Scattered Clouds,20,2013-05-11 21:58:00
5:58 PM,80.4,56.5,44,30.03,10.0,NE,11.5,18.4,N/A,,Scattered Clouds,40,2013-05-11 22:58:00
6:58 PM,78.4,54.5,43,30.04,10.0,NE,10.4,-,N/A,,Partly Cloudy,40,2013-05-11 23:58:00
7:58 PM,74.8,54.5,49,30.08,10.0,ENE,6.9,-,N/A,,Clear,60,2013-05-12 00:58:00
8:58 PM,72.5,54.7,53,30.09,10.0,NE,6.9,-,N/A,,Partly Cloudy,50,2013-05-12 01:58:00
9:58 PM,72.1,53.2,51,30.11,10.0,NNE,8.1,-,N/A,,Clear,30,2013-05-12 02:58:00
10:58 PM,71.1,51.3,49,30.12,10.0,NE,5.8,-,N/A,,Clear,50,2013-05-12 03:58:00
11:58 PM,70.3,51.1,50,30.13,10.0,NNE,5.8,-,N/A,,Clear,20,2013-05-12 04:58:00